Location: Tuebingen alte Sternwarte
(48.5376°N, 9.0555°E)
Time: 01:30:20
(UTC+01:00)

Envisat - Pass Details

Date: 30 September 2017
Orbit: 764 x 766 km, 98.2° (Epoch: 09 December)

Event Time Altitude Azimuth Distance (km) Brightness Sun altitude
Exits shadow 19:55:40 - 120° (ESE) 2,394 5.0 -9.3°
Reaches altitude 10° 19:55:56 10° 119° (ESE) 2,302 4.9 -9.3°
Maximum altitude 20:00:09 27° 62° (ENE) 1,444 4.0 -10.0°
Drops below altitude 10° 20:04:22 10° 6° (N) 2,316 5.5 -10.7°
Sets 20:06:58 0° 355° (N) 3,247 6.4 -11.1°
